Flag for Germany Past Weather in Weiden in der Oberpfalz, Bavaria, Germany — Yesterday and Last 2 Weeks

Now
45 °F

Fog.


Feels Like: 45 °F
Forecast: 49 / 71 °F
Wind: No wind

Location: Grafenwoehr

Current Time: Sep 28, 2016 at 3:52:41 AM

Latest Report: Sep 28, 2016 at 2:59 AM


Visibility: 1 mi

Pressure: 30.36 "Hg

Humidity: 100%

Dew Point: 45 °F

Location of Weiden in der OberpfalzLocation

Past Weather in Weiden in der Oberpfalz — Graph

°F

Weiden in der Oberpfalz Temperature Yesterday

Maximum temperature yesterday: 72 °F (at 2:58 PM)
Minimum temperature yesterday: 46 °F (at 5:01 AM)
Average temperature yesterday: 57 °F

High & Low Weather Summary for the Past Weeks

 TemperatureHumidityPressure
High88 °F (Sep 13, 3:58 PM)100% (Sep 17, 7:58 AM)30.37 "Hg (Sep 17, 7:58 AM)
Low36 °F (Sep 21, 7:58 AM)25% (Sep 13, 4:58 PM)29.81 "Hg (Sep 17, 4:58 PM)
Average57 °F81%30.07 "Hg
* Reported Sep 13 1:58 AM — Sep 28 1:58 AM, Weiden in der Oberpfalz, Weather by CustomWeather, © 2016

Note: Actual official high and low records may vary slightly from our data, if they occured in-between our weather recording intervals... More about our weather records

Advertising

Weiden in der Oberpfalz Weather History for the Previous 24 Hours

Scroll right to see more
 ConditionsComfort  
Time TempWeatherWind HumidityBarometerVisibility
1:58 AM
Wed, Sep 28
46 °FClear.No wind93%30.36 "HgN/A
12:58 AM46 °FClear.No wind100%30.36 "HgN/A
11:58 PM
Tue, Sep 27
48 °FFog.No wind100%30.36 "Hg4 mi
10:58 PM50 °FClear.No wind100%30.35 "HgN/A
9:58 PM54 °FClear.No wind94%30.35 "HgN/A
8:58 PM55 °FClear.No wind88%30.36 "HgN/A
7:58 PM59 °FClear.No wind82%30.34 "HgN/A
7:04 PM64 °FPassing clouds.No wind73%30.33 "HgN/A
5:58 PM68 °FOvercast.3 mph53%30.30 "HgN/A
4:58 PM72 °FScattered clouds.2 mph47%30.29 "HgN/A
3:58 PM72 °FSunny.No wind47%30.28 "HgN/A
2:58 PM72 °FSunny.1 mph47%30.28 "HgN/A
1:58 PM68 °FSunny.1 mph49%30.28 "HgN/A
12:58 PM68 °FSunny.No wind49%30.28 "HgN/A
11:58 AM64 °FSunny.3 mph64%30.29 "HgN/A
10:58 AM61 °FSunny.No wind72%30.29 "HgN/A
9:58 AM57 °FOvercast.2 mph82%30.28 "HgN/A
8:58 AM52 °FOvercast.No wind100%30.27 "HgN/A
7:58 AM48 °FFog.No wind100%30.26 "Hg4 mi
6:58 AM48 °FFog.No wind100%30.23 "Hg6 mi
5:58 AM46 °FOvercast.No wind100%30.21 "HgN/A
5:01 AM46 °FFog.No wind100%30.22 "Hg4 mi
3:59 AM48 °FFog.2 mph100%30.21 "Hg4 mi
3:51 AM48 °FFog.No wind100%30.21 "Hg1 mi
Weather by CustomWeather, © 2016

See weather overviewHow to use our weather pages